GW0518 Weather Reports


Display with metric or nautical units.
time (UTC)temp
F
wind
direction
speed
MPH
gust
MPH
rain 1hr
in
rain 24hr
in
rain mn
in
humidity
%
barometer
mb
20260505021203 58 199 3.0 6.0 0.00 0.00 0.00 63 1004.7
20260505020704 58 200 3.0 5.0 0.00 0.00 0.00 63 1004.7
20260505020203 58 176 3.0 7.0 0.00 0.00 0.00 63 1004.7
20260505015203 58 194 3.0 6.0 0.00 0.00 0.00 63 1004.7
20260505014703 58 199 2.0 4.0 0.00 0.00 0.00 63 1004.6
20260505014204 58 200 2.0 4.0 0.00 0.00 0.00 63 1004.5
20260505013704 58 200 2.0 5.0 0.00 0.00 0.00 63 1004.4
20260505013204 58 200 2.0 5.0 0.00 0.00 0.00 62 1004.5
20260505012704 58 202 2.0 4.0 0.00 0.00 0.00 62 1004.4
20260505012422 58 201 2.0 4.0 0.00 0.00 0.00 62 1004.5
20260505011704 58 201 2.0 4.0 0.00 0.00 0.00 62 1004.5
20260505011203 58 201 2.0 4.0 0.00 0.00 0.00 62 1004.4
20260505010704 59 202 1.0 3.0 0.00 0.00 0.00 62 1004.4
20260505010203 59 202 1.0 3.0 0.00 0.00 0.00 61 1004.3
20260505005704 60 202 1.0 3.0 0.00 0.00 0.00 61 1004.3
20260505005424 60 202 1.0 2.0 0.00 0.00 0.00 60 1004.3
20260505004703 60 202 1.0 2.0 0.00 0.00 0.00 61 1004.3
20260505004204 60 202 0.0 2.0 0.00 0.00 0.00 59 1004.2
20260505003705 61 202 0.0 1.0 0.00 0.00 0.00 59 1004.1
20260505003203 61 202 1.0 2.0 0.00 0.00 0.00 58 1004.1
20260505002704 62 202 0.0 2.0 0.00 0.00 0.00 57 1004.1
20260505002204 62 202 0.0 2.0 0.00 0.00 0.00 56 1004.1
20260505001922 62 202 0.0 2.0 0.00 0.00 0.00 56 1004.1
20260505001420 62 202 1.0 3.0 0.00 0.00 0.00 56 1004.0
20260505000701 63 202 1.0 3.0 0.00 0.00 0.00 55 1003.9
20260505000204 64 202 0.0 2.0 0.00 0.00 0.00 53 1004.0
20260504235701 64 202 0.0 2.0 0.00 0.00 0.00 51 1004.1
20260504235421 65 202 1.0 3.0 0.00 0.00 0.00 51 1004.1
20260504234701 66 202 1.0 3.0 0.00 0.00 0.00 50 1004.1
20260504234202 67 202 2.0 3.0 0.00 0.00 0.00 48 1004.1
20260504233701 68 202 2.0 3.0 0.00 0.00 0.00 47 1003.9
20260504233202 69 202 2.0 3.0 0.00 0.00 0.00 45 1004.0
20260504232701 70 202 2.0 4.0 0.00 0.00 0.00 44 1003.9
20260504232201 70 202 2.0 6.0 0.00 0.00 0.00 41 1003.9
20260504231702 71 200 2.0 6.0 0.00 0.00 0.00 41 1003.9
20260504231201 71 213 2.0 5.0 0.00 0.00 0.00 41 1003.9
20260504230701 71 215 2.0 7.0 0.00 0.00 0.00 40 1003.8
20260504230201 71 217 2.0 7.0 0.00 0.00 0.00 39 1003.8
20260504225701 72 225 3.0 10.0 0.00 0.00 0.00 40 1003.9
20260504225202 72 225 3.0 10.0 0.00 0.00 0.00 37 1003.9
20260504224700 72 249 3.0 8.0 0.00 0.00 0.00 39 1003.9
20260504223702 73 261 4.0 10.0 0.00 0.00 0.00 37 1004.1
20260504223201 73 231 4.0 10.0 0.00 0.00 0.00 37 1004.0
20260504222702 73 226 4.0 9.0 0.00 0.00 0.00 36 1004.2
20260504222201 73 248 4.0 11.0 0.00 0.00 0.00 37 1004.2
20260504221701 73 288 4.0 11.0 0.00 0.00 0.00 36 1004.2
20260504221201 73 242 3.0 9.0 0.00 0.00 0.00 37 1004.2
20260504220701 73 228 5.0 11.0 0.00 0.00 0.00 39 1004.2
20260504220429 73 221 5.0 11.0 0.00 0.00 0.00 39 1004.3
20260504215703 73 247 3.0 9.0 0.00 0.00 0.00 39 1004.2
20260504215428 73 227 4.0 9.0 0.00 0.00 0.00 39 1004.3
20260504214700 73 287 5.0 11.0 0.00 0.00 0.00 37 1004.3
20260504214200 73 247 5.0 11.0 0.00 0.00 0.00 36 1004.4
20260504213701 73 265 5.0 11.0 0.00 0.00 0.00 37 1004.4
20260504213202 73 223 5.0 11.0 0.00 0.00 0.00 38 1004.4
20260504212701 73 242 5.0 13.0 0.00 0.00 0.00 37 1004.3
20260504212200 73 276 4.0 13.0 0.00 0.00 0.00 39 1004.3
20260504211701 73 224 4.0 10.0 0.00 0.00 0.00 41 1004.4
20260504211201 73 266 4.0 10.0 0.00 0.00 0.00 39 1004.4
20260504210701 73 265 4.0 10.0 0.00 0.00 0.00 39 1004.5
20260504210201 73 207 5.0 14.0 0.00 0.00 0.00 44 1004.5
20260504205702 72 242 6.0 14.0 0.00 0.00 0.00 40 1004.6
20260504205201 73 209 5.0 14.0 0.00 0.00 0.00 40 1004.6
20260504204701 73 244 5.0 15.0 0.00 0.00 0.00 41 1004.7
20260504204200 72 199 6.0 15.0 0.00 0.00 0.00 42 1004.7
20260504203701 73 254 6.0 14.0 0.00 0.00 0.00 43 1004.9
20260504203201 72 263 5.0 14.0 0.00 0.00 0.00 42 1005.0
20260504202700 72 215 6.0 16.0 0.00 0.00 0.00 42 1004.9
20260504202202 72 252 7.0 16.0 0.00 0.00 0.00 42 1005.0
20260504201700 72 233 5.0 14.0 0.00 0.00 0.00 42 1004.9
20260504201201 71 232 6.0 15.0 0.00 0.00 0.00 42 1005.1
20260504200702 72 242 6.0 15.0 0.00 0.00 0.00 43 1005.1
20260504200201 72 253 7.0 16.0 0.00 0.00 0.00 42 1005.2
20260504195701 72 236 8.0 16.0 0.00 0.00 0.00 44 1005.2
20260504195200 72 239 7.0 24.0 0.00 0.00 0.00 44 1005.2
20260504194201 72 207 5.0 12.0 0.00 0.00 0.00 48 1005.5
20260504193701 73 217 6.0 13.0 0.00 0.00 0.00 45 1005.6
20260504193201 72 266 6.0 13.0 0.00 0.00 0.00 45 1005.6
20260504192704 71 225 5.0 12.0 0.00 0.00 0.00 44 1005.7
20260504192200 72 240 5.0 13.0 0.00 0.00 0.00 50 1005.7
20260504191701 71 271 6.0 15.0 0.00 0.00 0.00 46 1005.9
20260504191201 71 282 7.0 19.0 0.00 0.00 0.00 46 1005.9
20260504190701 71 291 8.0 19.0 0.00 0.00 0.00 45 1005.9
20260504190200 71 243 7.0 16.0 0.00 0.00 0.00 45 1006.0
20260504185924 70 261 8.0 17.0 0.00 0.00 0.00 46 1006.0
20260504185201 70 248 9.0 18.0 0.00 0.00 0.00 45 1006.1
20260504184926 71 219 8.0 18.0 0.00 0.00 0.00 48 1006.2
20260504184201 71 228 8.0 18.0 0.00 0.00 0.00 47 1006.2
20260504183701 71 242 7.0 14.0 0.00 0.00 0.00 48 1006.2
20260504183202 71 260 7.0 20.0 0.00 0.00 0.00 46 1006.3
20260504182701 71 256 8.0 20.0 0.00 0.00 0.00 48 1006.3
20260504182200 70 270 7.0 17.0 0.00 0.00 0.00 47 1006.3
20260504181701 70 208 8.0 19.0 0.00 0.00 0.00 48 1006.3
20260504181201 69 236 7.0 19.0 0.00 0.00 0.00 48 1006.4
20260504180701 69 240 9.0 19.0 0.00 0.00 0.00 49 1006.5
20260504180202 70 279 9.0 19.0 0.00 0.00 0.00 49 1006.4
20260504175701 69 231 7.0 17.0 0.00 0.00 0.00 49 1006.4
20260504175201 69 291 8.0 18.0 0.00 0.00 0.00 47 1006.5
20260504174701 69 248 8.0 18.0 0.00 0.00 0.00 51 1006.3
20260504174201 69 240 8.0 18.0 0.00 0.00 0.00 49 1006.3
20260504173702 69 226 7.0 18.0 0.00 0.00 0.00 49 1006.4
20260504172701 69 239 6.0 12.0 0.00 0.00 0.00 53 1006.4
20260504172201 68 229 7.0 16.0 0.00 0.00 0.00 52 1006.5
20260504171200 68 240 9.0 17.0 0.00 0.00 0.00 54 1006.6
20260504170700 67 167 9.0 21.0 0.00 0.00 0.00 51 1006.7
20260504170200 67 228 9.0 21.0 0.00 0.00 0.00 54 1006.7
20260504160201 65 257 6.0 18.0 0.00 0.00 0.00 55 1007.1
20260504150927 62 155 7.0 17.0 0.00 0.00 0.00 56 1007.4
20260504150203 62 235 7.0 17.0 0.00 0.00 0.00 55 1007.4
20260504141200 60 225 8.0 17.0 0.00 0.00 0.00 55 1007.9
20260504140701 60 196 8.0 16.0 0.00 0.00 0.00 55 1008.0
20260504140200 60 256 8.0 16.0 0.00 0.00 0.00 55 1007.9
20260504130701 55 219 5.0 19.0 0.00 0.00 0.00 60 1008.3
20260504130201 55 223 5.0 12.0 0.00 0.00 0.00 62 1008.4
20260504110700 49 193 4.0 10.0 0.00 0.00 0.00 68 1008.6
20260504110201 49 174 4.0 10.0 0.00 0.00 0.00 68 1008.6
20260504081701 48 200 2.0 5.0 0.00 0.00 0.00 68 1008.9
20260504081201 48 200 2.0 5.0 0.00 0.00 0.00 67 1008.9
20260504080700 48 200 2.0 6.0 0.00 0.00 0.00 66 1009.0
20260504080201 48 200 2.0 6.0 0.00 0.00 0.00 65 1009.1
20260504070201 50 217 3.0 8.0 0.00 0.00 0.00 61 1009.1
20260504060202 51 231 3.0 7.0 0.00 0.00 0.00 58 1009.4
20260504050701 51 237 4.0 10.0 0.00 0.00 0.00 58 1009.5
20260504050201 51 221 3.0 8.0 0.00 0.00 0.00 59 1009.5
20260504045701 51 208 3.0 8.0 0.00 0.00 0.00 59 1009.5
20260504045201 51 213 3.0 7.0 0.00 0.00 0.00 59 1009.5
20260504044702 51 213 3.0 7.0 0.00 0.00 0.00 59 1009.5
20260504044200 51 229 3.0 8.0 0.00 0.00 0.00 60 1009.5
20260504043700 52 243 3.0 9.0 0.00 0.00 0.00 60 1009.6
20260504043201 52 225 3.0 9.0 0.00 0.00 0.00 60 1009.6
20260504042920 52 217 2.0 6.0 0.00 0.00 0.00 61 1009.5
20260504042435 52 194 2.0 5.0 0.00 0.00 0.00 61 1009.6
20260504041921 52 194 2.0 6.0 0.00 0.00 0.00 61 1009.7
20260504041203 52 194 2.0 6.0 0.00 0.00 0.00 61 1009.6
20260504040758 52 233 2.0 4.0 0.00 0.00 0.00 60 1009.7
20260504040749 52 233 2.0 4.0 0.00 0.00 0.00 60 1009.6
20260504035701 52 233 2.0 5.0 0.00 0.00 0.00 61 1009.5
20260504035202 52 233 2.0 5.0 0.00 0.00 0.00 60 1009.6
20260504034700 52 235 2.0 4.0 0.00 0.00 0.00 60 1009.6
20260504034201 53 235 2.0 4.0 0.00 0.00 0.00 60 1009.6
20260504033700 53 235 2.0 5.0 0.00 0.00 0.00 60 1009.6
20260504033423 53 235 2.0 5.0 0.00 0.00 0.00 60 1009.7
20260504032701 53 234 3.0 7.0 0.00 0.00 0.00 60 1009.8
20260504032201 53 234 4.0 8.0 0.00 0.00 0.00 59 1009.8
20260504031701 53 223 3.0 8.0 0.00 0.00 0.00 59 1009.8
20260504031201 53 236 3.0 9.0 0.00 0.00 0.00 59 1009.8
20260504030700 53 236 3.0 9.0 0.00 0.00 0.00 59 1009.9
20260504030201 53 263 3.0 7.0 0.00 0.00 0.00 59 1009.9
20260504025701 53 241 4.0 8.0 0.00 0.00 0.00 59 1009.9
20260504025201 53 238 3.0 8.0 0.00 0.00 0.00 59 1009.9
20260504024700 53 256 3.0 10.0 0.00 0.00 0.00 59 1009.9
20260504024200 53 254 3.0 10.0 0.00 0.00 0.00 59 1009.9
20260504023701 53 259 3.0 9.0 0.00 0.00 0.00 59 1009.8
20260504022701 53 254 4.0 11.0 0.00 0.00 0.00 60 1009.9
20260504022201 52 264 4.0 11.0 0.00 0.00 0.00 60 1010.0